Погода в Старом Погорелове

Россия / Ульяновская область     54°07′13″N   46°51′14″E
темп.,
°C
ветер,
м/с
пор.,
м/с
влажн.,
%
обл.,
%
осадки,
мм/ч
давл.,
гПа
погр.,
м
7 мая, пт
пт701:00+10ю31367100 0.0 1015352
04:00+9ю41370100 0.0 1014337
07:00+10ю41267100 0.0 1014434
10:00+14ю51154100 0.0 1013937
13:00+17ю71243100 0.0 10132114
16:00+16ююз61259100 0.2 10121780
19:00+11ююз2793100 2.1 1013410
22:00+8сз4795100 3.8 1016364
8 мая, сб
сб801:00+7с2597100 3.1 1016273
04:00+7с3797100 3.9 1017363
07:00+7с269599 0.1 1017337
10:00+8ссв2290100 0.1 1017477
13:00+12ююв2276100 0.0 1016800
16:00+15ююз3561100 0.1 10141211
19:00+14ююз236952 0.0 101259
22:00+10ю2383100 0.0 101245
9 мая, вс
вс901:00+9ю3784100 0.0 1012118
04:00+9ю387799 0.0 1011153
07:00+11ююв41273100 0.1 1011323
10:00+15ююв41363100 0.1 1011661
13:00+16ю51160100 0.0 10121108
16:00+14ююв2775100 0.3 1012373
19:00+14ю1184100 1.7 101226
22:00+12ссв1193100 3.5 101312
10 мая, пн
пн1001:00+10ссз3799100 0.0 1015229
04:00+10ссз3699100 0.0 1016235
07:00+10с4898100 0.0 1019299
10:00+12ссв4793100 0.0 1020415
13:00+14ссв5784100 0.0 1021637
16:00+17ссв5674100 0.0 1022824
19:00+16ссв597998 0.0 1023566
22:00+12ссв51293100 0.0 1024417
11 мая, вт
вт1101:00+10св51297100 0.0 1025393
04:00+9св5129586 0.0 1026395
07:00+9св51290100 0.0 1027335
10:00+14всв5876100 0.0 1027535
13:00+17всв5666100 0.0 1027746
16:00+19всв5662100 0.0 1027927
19:00+16всв4874100 0.0 1027610
22:00+12всв31079100 0.0 1028248